| time (UTC) | temp C | wind direction | speed KPH | gust KPH | rain 1hr cm | rain 24hr cm | rain mn cm | humidity % | barometer mb |
| 20260508142418 | 11 | 204 | 1.6 | 6.4 | 0.00 | 0.15 | 0.15 | 75 | 1016.5 |
| 20260508141518 | 12 | 225 | 1.6 | 3.2 | 0.00 | 0.15 | 0.15 | 73 | 1016.2 |
| 20260508140618 | 12 | 243 | 1.6 | 3.2 | 0.00 | 0.15 | 0.15 | 73 | 1016.0 |
| 20260508135718 | 12 | 248 | 1.6 | 3.2 | 0.00 | 0.15 | 0.15 | 77 | 1016.3 |
| 20260508134818 | 11 | 228 | 1.6 | 6.4 | 0.00 | 0.15 | 0.15 | 78 | 1016.2 |
| 20260508133918 | 12 | 225 | 1.6 | 6.4 | 0.00 | 0.15 | 0.15 | 79 | 1016.4 |
| 20260508133018 | 12 | 248 | 1.6 | 3.2 | 0.00 | 0.15 | 0.15 | 80 | 1016.1 |
| 20260508132118 | 12 | 248 | 1.6 | 3.2 | 0.00 | 0.15 | 0.15 | 81 | 1016.3 |
| 20260508131218 | 11 | 248 | 3.2 | 3.2 | 0.00 | 0.15 | 0.15 | 83 | 1016.1 |
| 20260508130318 | 11 | 248 | 1.6 | 3.2 | 0.03 | 0.15 | 0.15 | 85 | 1016.0 |
| 20260508125418 | 11 | 248 | 3.2 | 6.4 | 0.03 | 0.15 | 0.15 | 84 | 1016.1 |
| 20260508124518 | 11 | 248 | 1.6 | 3.2 | 0.03 | 0.15 | 0.15 | 82 | 1015.9 |
| 20260508123618 | 11 | 248 | 0.0 | 3.2 | 0.03 | 0.15 | 0.15 | 85 | 1016.0 |
| 20260508122718 | 11 | 248 | 0.0 | 3.2 | 0.03 | 0.15 | 0.15 | 86 | 1015.9 |
| 20260508121818 | 11 | 248 | 1.6 | 3.2 | 0.03 | 0.15 | 0.15 | 87 | 1016.0 |
| 20260508120918 | 11 | 250 | 1.6 | 3.2 | 0.00 | 0.13 | 0.13 | 87 | 1015.9 |
| 20260508120018 | 11 | 258 | 3.2 | 6.4 | 0.00 | 0.13 | 0.13 | 85 | 1015.9 |
| 20260508115118 | 11 | 262 | 3.2 | 6.4 | 0.00 | 0.13 | 0.13 | 83 | 1015.7 |
| 20260508114218 | 12 | 238 | 3.2 | 3.2 | 0.00 | 0.13 | 0.13 | 84 | 1015.4 |
| 20260508112418 | 11 | 209 | 3.2 | 6.4 | 0.03 | 0.13 | 0.13 | 84 | 1015.5 |
| 20260508111518 | 11 | 208 | 1.6 | 3.2 | 0.03 | 0.13 | 0.13 | 88 | 1015.5 |
| 20260508105718 | 10 | 228 | 1.6 | 3.2 | 0.05 | 0.13 | 0.13 | 91 | 1015.4 |
| 20260508104818 | 10 | 243 | 0.0 | 3.2 | 0.05 | 0.13 | 0.13 | 91 | 1015.3 |
| 20260508103918 | 10 | 248 | 0.0 | 3.2 | 0.05 | 0.13 | 0.13 | 90 | 1015.3 |
| 20260508101218 | 11 | 270 | 3.2 | 6.4 | 0.03 | 0.10 | 0.10 | 85 | 1015.0 |
| 20260508095418 | 11 | 248 | 3.2 | 6.4 | 0.00 | 0.05 | 0.05 | 83 | 1014.8 |
| 20260508093618 | 11 | 249 | 3.2 | 6.4 | 0.00 | 0.05 | 0.05 | 82 | 1014.6 |
| 20260508092718 | 11 | 248 | 4.8 | 6.4 | 0.00 | 0.05 | 0.05 | 80 | 1014.6 |
| 20260508091818 | 12 | 209 | 3.2 | 3.2 | 0.00 | 0.05 | 0.05 | 78 | 1014.5 |
| 20260508090918 | 12 | 191 | 3.2 | 6.4 | 0.00 | 0.05 | 0.05 | 77 | 1014.6 |
| 20260508090019 | 12 | 187 | 1.6 | 6.4 | 0.00 | 0.05 | 0.05 | 75 | 1014.3 |
| 20260508084218 | 12 | 208 | 4.8 | 9.7 | 0.00 | 0.05 | 0.05 | 75 | 1014.3 |
| 20260508082418 | 12 | 205 | 3.2 | 6.4 | 0.00 | 0.05 | 0.05 | 78 | 1014.4 |
| 20260508081519 | 12 | 191 | 3.2 | 6.4 | 0.00 | 0.05 | 0.05 | 80 | 1014.2 |
| 20260508080618 | 11 | 174 | 3.2 | 6.4 | 0.00 | 0.05 | 0.05 | 82 | 1014.4 |
| 20260508075718 | 11 | 147 | 1.6 | 3.2 | 0.00 | 0.05 | 0.05 | 86 | 1014.2 |
| 20260508074818 | 11 | 135 | 1.6 | 3.2 | 0.00 | 0.05 | 0.05 | 90 | 1014.1 |
| 20260508073918 | 11 | 135 | 0.0 | 3.2 | 0.00 | 0.05 | 0.05 | 91 | 1014.1 |
| 20260508073018 | 10 | 135 | 0.0 | 3.2 | 0.00 | 0.05 | 0.05 | 92 | 1013.9 |
| 20260508072118 | 10 | 135 | 1.6 | 3.2 | 0.00 | 0.05 | 0.05 | 94 | 1013.8 |
| 20260508071218 | 9 | 135 | 0.0 | 3.2 | 0.00 | 0.05 | 0.05 | 95 | 1013.6 |
| 20260508065418 | 9 | 158 | 1.6 | 3.2 | 0.00 | 0.05 | 0.05 | 96 | 1013.6 |
| 20260508064518 | 9 | 158 | 1.6 | 3.2 | 0.00 | 0.05 | 0.05 | 96 | 1013.4 |
| 20260508063618 | 9 | 158 | 1.6 | 3.2 | 0.00 | 0.05 | 0.05 | 97 | 1013.3 |
| 20260508062718 | 8 | 158 | 0.0 | 3.2 | 0.00 | 0.05 | 0.05 | 97 | 1013.4 |
| 20260508061818 | 9 | 158 | 0.0 | 3.2 | 0.00 | 0.05 | 0.05 | 97 | 1013.4 |
| 20260508060918 | 8 | 158 | 1.6 | 3.2 | 0.00 | 0.05 | 0.05 | 97 | 1013.2 |
| 20260508060019 | 8 | 0 | 0.0 | 0.0 | 0.00 | 0.05 | 0.05 | 97 | 1013.2 |
| 20260508055118 | 8 | 158 | 0.0 | 3.2 | 0.00 | 0.05 | 0.05 | 97 | 1013.2 |
| 20260508054218 | 8 | 158 | 0.0 | 3.2 | 0.03 | 0.05 | 0.05 | 97 | 1013.0 |
| 20260508053318 | 8 | 0 | 0.0 | 0.0 | 0.05 | 0.05 | 0.05 | 97 | 1013.1 |
| 20260508051519 | 8 | 158 | 0.0 | 3.2 | 0.05 | 0.05 | 0.05 | 96 | 1012.8 |
| 20260508050618 | 8 | 158 | 1.6 | 3.2 | 0.05 | 0.05 | 0.05 | 96 | 1012.5 |
| 20260508043918 | 8 | 158 | 0.0 | 3.2 | 0.03 | 0.03 | 0.03 | 93 | 1012.6 |
| 20260508043019 | 8 | 158 | 0.0 | 3.2 | 0.00 | 0.00 | 0.00 | 92 | 1012.5 |
| 20260508042118 | 8 | 0 | 0.0 | 0.0 | 0.00 | 0.00 | 0.00 | 90 | 1012.5 |
| 20260508041218 | 8 | 158 | 0.0 | 3.2 | 0.00 | 0.00 | 0.00 | 88 | 1012.5 |
| 20260508040318 | 8 | 165 | 0.0 | 3.2 | 0.00 | 0.00 | 0.00 | 87 | 1012.5 |
| 20260508034519 | 8 | 158 | 0.0 | 3.2 | 0.00 | 0.00 | 0.00 | 86 | 1012.4 |
| 20260508032718 | 8 | 0 | 0.0 | 0.0 | 0.00 | 0.00 | 0.00 | 85 | 1012.2 |
| 20260508031818 | 8 | 157 | 1.6 | 3.2 | 0.00 | 0.00 | 0.00 | 84 | 1012.3 |
| 20260508030918 | 8 | 158 | 0.0 | 3.2 | 0.00 | 0.00 | 0.00 | 84 | 1012.3 |
| 20260508030019 | 8 | 160 | 1.6 | 3.2 | 0.00 | 0.00 | 0.00 | 84 | 1012.2 |
| 20260508025118 | 8 | 163 | 1.6 | 3.2 | 0.00 | 0.00 | 0.00 | 84 | 1012.3 |
| 20260508023318 | 8 | 181 | 0.0 | 3.2 | 0.00 | 0.00 | 0.00 | 83 | 1012.2 |
| 20260508022418 | 8 | 173 | 3.2 | 6.4 | 0.00 | 0.00 | 0.00 | 82 | 1012.1 |
| 20260508021519 | 8 | 192 | 3.2 | 6.4 | 0.00 | 0.00 | 0.00 | 82 | 1012.3 |
| 20260508020618 | 8 | 205 | 3.2 | 6.4 | 0.00 | 0.00 | 0.00 | 81 | 1012.3 |
| 20260508015718 | 8 | 166 | 1.6 | 3.2 | 0.00 | 0.00 | 0.00 | 79 | 1012.2 |
| 20260508014818 | 8 | 112 | 1.6 | 3.2 | 0.00 | 0.00 | 0.00 | 81 | 1012.2 |
| 20260508013918 | 8 | 112 | 0.0 | 3.2 | 0.00 | 0.00 | 0.00 | 79 | 1012.2 |
| 20260508013019 | 8 | 116 | 1.6 | 6.4 | 0.00 | 0.00 | 0.00 | 79 | 1011.9 |
| 20260508012118 | 8 | 198 | 1.6 | 3.2 | 0.00 | 0.00 | 0.00 | 80 | 1012.0 |
| 20260508011218 | 8 | 178 | 1.6 | 3.2 | 0.00 | 0.00 | 0.00 | 80 | 1012.1 |
| 20260508010318 | 9 | 166 | 3.2 | 3.2 | 0.00 | 0.00 | 0.00 | 79 | 1011.9 |
| 20260508005418 | 9 | 160 | 3.2 | 6.4 | 0.00 | 0.00 | 0.00 | 79 | 1012.1 |
| 20260508004518 | 9 | 183 | 6.4 | 6.4 | 0.00 | 0.00 | 0.00 | 79 | 1012.1 |
| 20260508002718 | 9 | 177 | 3.2 | 6.4 | 0.00 | 0.00 | 0.00 | 79 | 1012.0 |
| 20260508000918 | 8 | 207 | 1.6 | 3.2 | 0.00 | 0.00 | 0.00 | 80 | 1012.3 |
| 20260508000018 | 9 | 249 | 3.2 | 9.7 | 0.00 | 0.00 | 0.00 | 79 | 1012.2 |
| 20260507235118 | 8 | 355 | 1.6 | 6.4 | 0.00 | 0.00 | 0.00 | 80 | 1012.2 |
| 20260507234218 | 9 | 181 | 4.8 | 11.3 | 0.00 | 0.00 | 0.00 | 78 | 1012.1 |
| 20260507233318 | 9 | 178 | 4.8 | 11.3 | 0.00 | 0.00 | 0.00 | 78 | 1011.8 |
| 20260507232418 | 9 | 169 | 6.4 | 9.7 | 0.00 | 0.00 | 0.00 | 77 | 1011.8 |
| 20260507231519 | 9 | 270 | 4.8 | 6.4 | 0.00 | 0.00 | 0.00 | 77 | 1011.9 |
| 20260507230619 | 9 | 250 | 6.4 | 14.5 | 0.00 | 0.00 | 0.00 | 77 | 1011.9 |
| 20260507224818 | 10 | 208 | 6.4 | 9.7 | 0.00 | 0.00 | 0.00 | 76 | 1011.6 |
| 20260507223918 | 10 | 221 | 6.4 | 12.9 | 0.00 | 0.00 | 0.00 | 76 | 1011.5 |
| 20260507221218 | 10 | 49 | 6.4 | 14.5 | 0.00 | 0.00 | 0.00 | 76 | 1011.6 |
| 20260507220318 | 10 | 236 | 4.8 | 9.7 | 0.00 | 0.00 | 0.00 | 77 | 1011.5 |
| 20260507215418 | 9 | 55 | 6.4 | 9.7 | 0.00 | 0.00 | 0.00 | 76 | 1011.6 |
| 20260507214519 | 9 | 337 | 3.2 | 6.4 | 0.00 | 0.00 | 0.00 | 79 | 1011.8 |
| 20260507213618 | 9 | 206 | 4.8 | 12.9 | 0.00 | 0.00 | 0.00 | 79 | 1011.7 |
| 20260507211818 | 9 | 244 | 6.4 | 14.5 | 0.00 | 0.00 | 0.00 | 79 | 1011.7 |
| 20260507210019 | 9 | 202 | 4.8 | 9.7 | 0.00 | 0.00 | 0.00 | 78 | 1011.8 |
| 20260507204218 | 9 | 171 | 3.2 | 6.4 | 0.00 | 0.00 | 0.00 | 77 | 1012.0 |
| 20260507203318 | 9 | 68 | 3.2 | 6.4 | 0.00 | 0.00 | 0.00 | 78 | 1011.8 |
| 20260507202418 | 10 | 149 | 3.2 | 6.4 | 0.00 | 0.00 | 0.00 | 77 | 1011.9 |
| 20260507195718 | 10 | 194 | 4.8 | 9.7 | 0.00 | 0.00 | 0.00 | 76 | 1012.1 |
| 20260507194818 | 10 | 184 | 4.8 | 6.4 | 0.00 | 0.00 | 0.00 | 75 | 1011.8 |
| 20260507193918 | 10 | 168 | 3.2 | 6.4 | 0.00 | 0.00 | 0.00 | 75 | 1011.8 |
| 20260507191218 | 10 | 175 | 4.8 | 11.3 | 0.00 | 0.00 | 0.00 | 74 | 1011.8 |
| 20260507190318 | 10 | 195 | 8.0 | 11.3 | 0.00 | 0.00 | 0.00 | 73 | 1011.6 |
| 20260507184519 | 11 | 198 | 4.8 | 6.4 | 0.00 | 0.00 | 0.00 | 73 | 1011.7 |
| 20260507183618 | 11 | 183 | 1.6 | 9.7 | 0.00 | 0.00 | 0.00 | 73 | 1011.6 |
| 20260507180919 | 11 | 207 | 6.4 | 12.9 | 0.00 | 0.00 | 0.00 | 71 | 1011.4 |
| 20260507180019 | 11 | 186 | 4.8 | 9.7 | 0.00 | 0.00 | 0.00 | 70 | 1011.1 |
| 20260507175118 | 11 | 205 | 4.8 | 6.4 | 0.00 | 0.00 | 0.00 | 69 | 1011.0 |
| 20260507173318 | 11 | 194 | 9.7 | 20.9 | 0.00 | 0.00 | 0.00 | 67 | 1011.0 |
| 20260507171519 | 12 | 198 | 6.4 | 12.9 | 0.00 | 0.00 | 0.00 | 66 | 1011.3 |
| 20260507170619 | 12 | 177 | 11.3 | 20.9 | 0.00 | 0.00 | 0.00 | 66 | 1011.3 |
| 20260507165719 | 12 | 192 | 9.7 | 17.7 | 0.00 | 0.00 | 0.00 | 65 | 1011.2 |
| 20260507164819 | 12 | 198 | 8.0 | 12.9 | 0.00 | 0.00 | 0.00 | 64 | 1011.3 |
| 20260507163918 | 12 | 193 | 9.7 | 14.5 | 0.00 | 0.00 | 0.00 | 66 | 1011.3 |
| 20260507163019 | 12 | 202 | 9.7 | 14.5 | 0.00 | 0.00 | 0.00 | 64 | 1011.4 |
| 20260507162119 | 12 | 182 | 8.0 | 12.9 | 0.00 | 0.00 | 0.00 | 64 | 1011.3 |
| 20260507161219 | 12 | 192 | 6.4 | 12.9 | 0.00 | 0.00 | 0.00 | 62 | 1011.4 |
| 20260507160318 | 12 | 182 | 6.4 | 12.9 | 0.00 | 0.00 | 0.00 | 63 | 1011.3 |
| 20260507155419 | 12 | 188 | 9.7 | 14.5 | 0.00 | 0.00 | 0.00 | 62 | 1011.3 |
| 20260507154519 | 12 | 203 | 8.0 | 14.5 | 0.00 | 0.00 | 0.00 | 62 | 1011.5 |
| 20260507153618 | 12 | 216 | 8.0 | 17.7 | 0.00 | 0.00 | 0.00 | 60 | 1011.3 |
| 20260507152718 | 12 | 204 | 11.3 | 20.9 | 0.00 | 0.00 | 0.00 | 58 | 1011.5 |
| 20260507151819 | 12 | 188 | 9.7 | 20.9 | 0.00 | 0.00 | 0.00 | 57 | 1011.4 |
| 20260507150919 | 12 | 203 | 8.0 | 17.7 | 0.00 | 0.00 | 0.00 | 59 | 1011.4 |
| 20260507150019 | 12 | 185 | 14.5 | 17.7 | 0.00 | 0.00 | 0.00 | 61 | 1011.4 |
| 20260507145119 | 12 | 200 | 11.3 | 17.7 | 0.00 | 0.00 | 0.00 | 62 | 1011.5 |
| 20260507144218 | 12 | 217 | 8.0 | 17.7 | 0.00 | 0.00 | 0.00 | 59 | 1011.4 |
| 20260507143319 | 12 | 196 | 9.7 | 22.5 | 0.00 | 0.00 | 0.00 | 61 | 1011.5 |